| time (UTC) | temp F | wind direction | speed MPH | gust MPH | rain 1hr in | rain 24hr in | rain mn in | humidity % | barometer mb |
| 20260903051147 | 55 | 257 | 3.0 | 4.0 | 0.00 | 0.00 | 0.00 | 85 | 1024.2 |
| 20260903050533 | 56 | 247 | 2.0 | 3.0 | 0.00 | 0.00 | 0.00 | 85 | 1024.0 |
| 20260903045534 | 55 | 239 | 3.0 | 5.0 | 0.00 | 0.00 | 0.00 | 87 | 1024.0 |
| 20260903044146 | 55 | 294 | 3.0 | 4.0 | 0.00 | 0.00 | 0.00 | 87 | 1023.9 |
| 20260903043533 | 56 | 313 | 3.0 | 4.0 | 0.00 | 0.00 | 0.00 | 87 | 1023.8 |
| 20260903042534 | 55 | 318 | 1.0 | 3.0 | 0.00 | 0.00 | 0.00 | 88 | 1023.9 |
| 20260903041146 | 55 | 237 | 1.0 | 2.0 | 0.00 | 0.00 | 0.00 | 88 | 1023.9 |
| 20260903040534 | 55 | 231 | 2.0 | 4.0 | 0.00 | 0.00 | 0.00 | 87 | 1023.9 |
| 20260903035534 | 55 | 250 | 3.0 | 4.0 | 0.00 | 0.00 | 0.00 | 88 | 1023.9 |
| 20260903034533 | 56 | 284 | 3.0 | 4.0 | 0.00 | 0.00 | 0.00 | 87 | 1023.7 |
| 20260903033533 | 56 | 265 | 2.0 | 3.0 | 0.00 | 0.00 | 0.00 | 86 | 1023.7 |
| 20260903032534 | 56 | 285 | 2.0 | 3.0 | 0.00 | 0.00 | 0.00 | 86 | 1023.6 |
| 20260903031147 | 56 | 247 | 2.0 | 3.0 | 0.00 | 0.00 | 0.00 | 86 | 1023.7 |
| 20260903030534 | 56 | 255 | 1.0 | 3.0 | 0.00 | 0.00 | 0.00 | 86 | 1023.7 |
| 20260903025534 | 56 | 277 | 1.0 | 2.0 | 0.00 | 0.00 | 0.00 | 86 | 1023.6 |
| 20260903024534 | 57 | 332 | 1.0 | 2.0 | 0.00 | 0.00 | 0.00 | 86 | 1023.6 |
| 20260903023534 | 57 | 156 | 1.0 | 3.0 | 0.00 | 0.00 | 0.00 | 84 | 1023.4 |
| 20260903022534 | 58 | 229 | 2.0 | 4.0 | 0.00 | 0.00 | 0.00 | 84 | 1023.2 |
| 20260903021146 | 58 | 289 | 2.0 | 4.0 | 0.00 | 0.00 | 0.00 | 85 | 1023.1 |
| 20260903020534 | 58 | 300 | 2.0 | 4.0 | 0.00 | 0.00 | 0.00 | 84 | 1023.3 |
| 20260903015534 | 58 | 237 | 2.0 | 4.0 | 0.00 | 0.00 | 0.00 | 83 | 1023.2 |
| 20260903014146 | 58 | 243 | 4.0 | 6.0 | 0.00 | 0.00 | 0.00 | 82 | 1023.0 |
| 20260903013532 | 59 | 288 | 3.0 | 4.0 | 0.00 | 0.00 | 0.00 | 81 | 1022.9 |
| 20260903012533 | 58 | 323 | 2.0 | 3.0 | 0.00 | 0.00 | 0.00 | 83 | 1023.0 |
| 20260903011147 | 59 | 204 | 1.0 | 2.0 | 0.00 | 0.00 | 0.00 | 80 | 1022.6 |
| 20260903010534 | 58 | 266 | 1.0 | 4.0 | 0.00 | 0.00 | 0.00 | 84 | 1022.7 |
| 20260903005534 | 60 | 286 | 1.0 | 3.0 | 0.00 | 0.00 | 0.00 | 80 | 1022.4 |
| 20260903004147 | 59 | 180 | 2.0 | 3.0 | 0.00 | 0.00 | 0.00 | 81 | 1022.4 |
| 20260903003534 | 60 | 59 | 1.0 | 3.0 | 0.00 | 0.00 | 0.00 | 78 | 1022.3 |
| 20260903002534 | 59 | 202 | 1.0 | 4.0 | 0.00 | 0.00 | 0.00 | 80 | 1022.4 |
| 20260903001546 | 60 | 175 | 3.0 | 5.0 | 0.00 | 0.00 | 0.00 | 80 | 1022.3 |
| 20260903000533 | 60 | 96 | 0.0 | 2.0 | 0.00 | 0.00 | 0.00 | 81 | 1022.3 |
| 20260902235533 | 60 | 229 | 1.0 | 2.0 | 0.00 | 0.00 | 0.00 | 82 | 1022.3 |
| 20260902234147 | 60 | 282 | 0.0 | 2.0 | 0.00 | 0.00 | 0.00 | 81 | 1022.2 |
| 20260902233533 | 60 | 320 | 1.0 | 3.0 | 0.00 | 0.00 | 0.00 | 81 | 1022.3 |
| 20260902232533 | 61 | 201 | 1.0 | 3.0 | 0.00 | 0.00 | 0.00 | 80 | 1022.1 |
| 20260902231534 | 61 | 302 | 1.0 | 4.0 | 0.00 | 0.00 | 0.00 | 78 | 1022.1 |
| 20260902230534 | 62 | 103 | 1.0 | 2.0 | 0.00 | 0.00 | 0.00 | 78 | 1021.9 |
| 20260902225534 | 62 | 165 | 3.0 | 4.0 | 0.00 | 0.00 | 0.00 | 78 | 1021.9 |
| 20260902224147 | 62 | 150 | 3.0 | 4.0 | 0.00 | 0.00 | 0.00 | 78 | 1021.9 |
| 20260902223534 | 62 | 162 | 2.0 | 3.0 | 0.00 | 0.00 | 0.00 | 78 | 1021.8 |
| 20260902222534 | 63 | 114 | 1.0 | 1.0 | 0.00 | 0.00 | 0.00 | 76 | 1021.6 |
| 20260902221147 | 63 | 13 | 1.0 | 4.0 | 0.00 | 0.00 | 0.00 | 77 | 1021.6 |
| 20260902220533 | 63 | 350 | 2.0 | 4.0 | 0.00 | 0.00 | 0.00 | 76 | 1021.4 |
| 20260902215534 | 63 | 178 | 2.0 | 2.0 | 0.00 | 0.00 | 0.00 | 78 | 1021.5 |
| 20260902214147 | 64 | 200 | 2.0 | 4.0 | 0.00 | 0.00 | 0.00 | 76 | 1021.3 |
| 20260902213533 | 63 | 230 | 1.0 | 3.0 | 0.00 | 0.00 | 0.00 | 77 | 1021.3 |
| 20260902211147 | 64 | 360 | 0.0 | 2.0 | 0.00 | 0.00 | 0.00 | 72 | 1021.0 |
| 20260902210534 | 64 | 95 | 1.0 | 2.0 | 0.00 | 0.00 | 0.00 | 74 | 1021.0 |
| 20260902205534 | 65 | 322 | 0.0 | 3.0 | 0.00 | 0.00 | 0.00 | 73 | 1020.9 |
| 20260902204148 | 65 | 333 | 1.0 | 3.0 | 0.00 | 0.00 | 0.00 | 73 | 1020.9 |
| 20260902203533 | 65 | 266 | 2.0 | 4.0 | 0.00 | 0.00 | 0.00 | 72 | 1020.7 |
| 20260902202534 | 65 | 195 | 0.0 | 3.0 | 0.00 | 0.00 | 0.00 | 71 | 1020.6 |
| 20260902201147 | 65 | 283 | 2.0 | 4.0 | 0.00 | 0.00 | 0.00 | 72 | 1020.6 |
| 20260902200534 | 66 | 269 | 2.0 | 4.0 | 0.00 | 0.00 | 0.00 | 68 | 1020.4 |
| 20260902195534 | 67 | 267 | 3.0 | 5.0 | 0.00 | 0.00 | 0.00 | 66 | 1020.3 |
| 20260902194147 | 67 | 228 | 3.0 | 6.0 | 0.00 | 0.00 | 0.00 | 70 | 1020.2 |
| 20260902193534 | 67 | 288 | 3.0 | 5.0 | 0.00 | 0.00 | 0.00 | 69 | 1020.1 |
| 20260902192533 | 68 | 264 | 3.0 | 6.0 | 0.00 | 0.00 | 0.00 | 64 | 1019.9 |
| 20260902191147 | 68 | 252 | 6.0 | 9.0 | 0.00 | 0.00 | 0.00 | 65 | 1019.7 |
| 20260902190533 | 69 | 268 | 5.0 | 8.0 | 0.00 | 0.00 | 0.00 | 63 | 1019.4 |
| 20260902185534 | 70 | 270 | 3.0 | 7.0 | 0.00 | 0.00 | 0.00 | 59 | 1019.1 |
| 20260902184147 | 70 | 312 | 3.0 | 9.0 | 0.00 | 0.00 | 0.00 | 57 | 1018.8 |
| 20260902183534 | 70 | 334 | 4.0 | 8.0 | 0.00 | 0.00 | 0.00 | 58 | 1018.7 |
| 20260902182534 | 73 | 14 | 3.0 | 11.0 | 0.00 | 0.00 | 0.00 | 51 | 1018.2 |
| 20260902181147 | 73 | 357 | 4.0 | 10.0 | 0.00 | 0.00 | 0.00 | 51 | 1018.1 |
| 20260902180534 | 73 | 339 | 3.0 | 8.0 | 0.00 | 0.00 | 0.00 | 51 | 1017.8 |
| 20260902175534 | 74 | 52 | 3.0 | 9.0 | 0.00 | 0.00 | 0.00 | 49 | 1017.7 |
| 20260902174147 | 74 | 88 | 4.0 | 14.0 | 0.00 | 0.00 | 0.00 | 49 | 1017.4 |
| 20260902173533 | 75 | 98 | 5.0 | 11.0 | 0.00 | 0.00 | 0.00 | 45 | 1017.1 |
| 20260902172534 | 74 | 97 | 9.0 | 20.0 | 0.00 | 0.00 | 0.00 | 45 | 1017.2 |
| 20260902171147 | 76 | 82 | 10.0 | 20.0 | 0.00 | 0.00 | 0.00 | 46 | 1016.8 |
| 20260902170534 | 76 | 99 | 13.0 | 21.0 | 0.00 | 0.00 | 0.00 | 45 | 1016.5 |
| 20260902165534 | 76 | 86 | 13.0 | 20.0 | 0.00 | 0.00 | 0.00 | 46 | 1016.4 |
| 20260902164147 | 77 | 81 | 13.0 | 25.0 | 0.00 | 0.00 | 0.00 | 45 | 1016.2 |
| 20260902163534 | 77 | 89 | 11.0 | 18.0 | 0.00 | 0.00 | 0.00 | 46 | 1016.1 |
| 20260902162534 | 78 | 91 | 13.0 | 20.0 | 0.00 | 0.00 | 0.00 | 46 | 1016.2 |
| 20260902161147 | 78 | 95 | 12.0 | 21.0 | 0.00 | 0.00 | 0.00 | 45 | 1016.1 |
| 20260902160533 | 78 | 95 | 12.0 | 22.0 | 0.00 | 0.00 | 0.00 | 44 | 1016.0 |
| 20260902155534 | 79 | 86 | 9.0 | 21.0 | 0.00 | 0.00 | 0.00 | 43 | 1015.8 |
| 20260902154147 | 79 | 78 | 6.0 | 15.0 | 0.00 | 0.00 | 0.00 | 41 | 1015.8 |
| 20260902153534 | 78 | 65 | 11.0 | 17.0 | 0.00 | 0.00 | 0.00 | 42 | 1015.9 |
| 20260902152533 | 78 | 59 | 11.0 | 16.0 | 0.00 | 0.00 | 0.00 | 41 | 1015.9 |
| 20260902151147 | 79 | 54 | 9.0 | 15.0 | 0.00 | 0.00 | 0.00 | 37 | 1015.9 |
| 20260902150534 | 79 | 67 | 5.0 | 11.0 | 0.00 | 0.00 | 0.00 | 38 | 1015.8 |
| 20260902145534 | 79 | 53 | 8.0 | 13.0 | 0.00 | 0.00 | 0.00 | 43 | 1015.7 |
| 20260902144147 | 79 | 52 | 8.0 | 15.0 | 0.00 | 0.00 | 0.00 | 40 | 1015.9 |
| 20260902143533 | 79 | 70 | 6.0 | 11.0 | 0.00 | 0.00 | 0.00 | 40 | 1016.0 |
| 20260902142534 | 79 | 56 | 6.0 | 12.0 | 0.00 | 0.00 | 0.00 | 38 | 1016.0 |
| 20260902141147 | 80 | 70 | 4.0 | 8.0 | 0.00 | 0.00 | 0.00 | 38 | 1015.9 |
| 20260902140534 | 80 | 97 | 4.0 | 10.0 | 0.00 | 0.00 | 0.00 | 37 | 1016.0 |
| 20260902135534 | 79 | 56 | 6.0 | 11.0 | 0.00 | 0.00 | 0.00 | 40 | 1016.2 |
| 20260902134145 | 79 | 44 | 5.0 | 11.0 | 0.00 | 0.00 | 0.00 | 42 | 1016.3 |
| 20260902133534 | 78 | 51 | 6.0 | 10.0 | 0.00 | 0.00 | 0.00 | 40 | 1016.5 |
| 20260902132534 | 78 | 57 | 6.0 | 10.0 | 0.00 | 0.00 | 0.00 | 43 | 1016.6 |
| 20260902131147 | 78 | 70 | 5.0 | 11.0 | 0.00 | 0.00 | 0.00 | 45 | 1016.6 |
| 20260902130534 | 78 | 41 | 4.0 | 10.0 | 0.00 | 0.00 | 0.00 | 44 | 1016.7 |
| 20260902125534 | 78 | 75 | 2.0 | 10.0 | 0.00 | 0.00 | 0.00 | 43 | 1016.9 |
| 20260902124146 | 78 | 51 | 4.0 | 9.0 | 0.00 | 0.00 | 0.00 | 42 | 1017.0 |
| 20260902123534 | 77 | 58 | 3.0 | 6.0 | 0.00 | 0.00 | 0.00 | 43 | 1017.2 |
| 20260902122534 | 77 | 59 | 2.0 | 8.0 | 0.00 | 0.00 | 0.00 | 42 | 1017.4 |
| 20260902121147 | 77 | 34 | 2.0 | 6.0 | 0.00 | 0.00 | 0.00 | 47 | 1017.5 |
| 20260902120533 | 76 | 83 | 1.0 | 6.0 | 0.00 | 0.00 | 0.00 | 45 | 1017.8 |
| 20260902115533 | 76 | 171 | 2.0 | 5.0 | 0.00 | 0.00 | 0.00 | 46 | 1017.9 |
| 20260902114147 | 76 | 119 | 1.0 | 5.0 | 0.00 | 0.00 | 0.00 | 49 | 1017.9 |
| 20260902113534 | 75 | 151 | 2.0 | 7.0 | 0.00 | 0.00 | 0.00 | 48 | 1018.1 |
| 20260902112534 | 74 | 164 | 2.0 | 5.0 | 0.00 | 0.00 | 0.00 | 50 | 1018.3 |
| 20260902111147 | 74 | 129 | 0.0 | 4.0 | 0.00 | 0.00 | 0.00 | 51 | 1018.7 |
| 20260902110534 | 73 | 161 | 1.0 | 4.0 | 0.00 | 0.00 | 0.00 | 51 | 1018.8 |
| 20260902105533 | 74 | 194 | 0.0 | 5.0 | 0.00 | 0.00 | 0.00 | 56 | 1018.9 |
| 20260902104147 | 73 | 171 | 1.0 | 6.0 | 0.00 | 0.00 | 0.00 | 52 | 1019.1 |
| 20260902103534 | 73 | 208 | 1.0 | 5.0 | 0.00 | 0.00 | 0.00 | 52 | 1019.4 |
| 20260902102533 | 72 | 247 | 1.0 | 4.0 | 0.00 | 0.00 | 0.00 | 53 | 1019.7 |
| 20260902101147 | 72 | 251 | 1.0 | 4.0 | 0.00 | 0.00 | 0.00 | 54 | 1019.8 |
| 20260902100534 | 71 | 329 | 2.0 | 5.0 | 0.00 | 0.00 | 0.00 | 54 | 1020.1 |
| 20260902095534 | 71 | 10 | 1.0 | 4.0 | 0.00 | 0.00 | 0.00 | 58 | 1020.3 |
| 20260902094147 | 70 | 331 | 2.0 | 4.0 | 0.00 | 0.00 | 0.00 | 57 | 1020.5 |
| 20260902093534 | 69 | 334 | 1.0 | 4.0 | 0.00 | 0.00 | 0.00 | 58 | 1020.7 |
| 20260902092533 | 68 | 347 | 1.0 | 4.0 | 0.00 | 0.00 | 0.00 | 58 | 1020.9 |
| 20260902091146 | 68 | 287 | 2.0 | 6.0 | 0.00 | 0.00 | 0.00 | 59 | 1021.1 |
| 20260902090534 | 67 | 287 | 4.0 | 8.0 | 0.00 | 0.00 | 0.00 | 62 | 1021.2 |
| 20260902084146 | 65 | 289 | 6.0 | 8.0 | 0.00 | 0.00 | 0.00 | 68 | 1021.6 |
| 20260902083534 | 65 | 290 | 6.0 | 11.0 | 0.00 | 0.00 | 0.00 | 66 | 1021.7 |
| 20260902082534 | 65 | 280 | 2.0 | 8.0 | 0.00 | 0.00 | 0.00 | 68 | 1021.8 |
| 20260902081146 | 64 | 244 | 2.0 | 4.0 | 0.00 | 0.00 | 0.00 | 68 | 1021.7 |
| 20260902080533 | 65 | 290 | 2.0 | 7.0 | 0.00 | 0.00 | 0.00 | 69 | 1021.8 |
| 20260902075534 | 63 | 294 | 1.0 | 4.0 | 0.00 | 0.00 | 0.00 | 70 | 1022.0 |
| 20260902074147 | 64 | 299 | 2.0 | 3.0 | 0.00 | 0.00 | 0.00 | 69 | 1021.9 |
| 20260902073533 | 64 | 309 | 2.0 | 5.0 | 0.00 | 0.00 | 0.00 | 72 | 1022.0 |
| 20260902072534 | 62 | 313 | 2.0 | 6.0 | 0.00 | 0.00 | 0.00 | 74 | 1022.5 |
| 20260902071347 | 62 | 283 | 1.0 | 3.0 | 0.00 | 0.00 | 0.00 | 73 | 1022.4 |
| 20260902070533 | 61 | 304 | 2.0 | 4.0 | 0.00 | 0.00 | 0.00 | 76 | 1022.7 |
| 20260902065533 | 60 | 314 | 3.0 | 7.0 | 0.00 | 0.00 | 0.00 | 77 | 1022.8 |
| 20260902064147 | 59 | 300 | 4.0 | 6.0 | 0.00 | 0.00 | 0.00 | 79 | 1023.1 |
| 20260902062534 | 58 | 289 | 2.0 | 4.0 | 0.00 | 0.00 | 0.00 | 81 | 1023.1 |
| 20260902061147 | 58 | 305 | 3.0 | 4.0 | 0.00 | 0.00 | 0.00 | 81 | 1023.1 |
| 20260902060534 | 60 | 322 | 1.0 | 2.0 | 0.00 | 0.00 | 0.00 | 80 | 1022.9 |
| 20260902055534 | 58 | 275 | 2.0 | 3.0 | 0.00 | 0.00 | 0.00 | 84 | 1023.1 |
| 20260902054147 | 57 | 273 | 2.0 | 3.0 | 0.00 | 0.00 | 0.00 | 83 | 1023.2 |
| 20260902053534 | 57 | 270 | 1.0 | 3.0 | 0.00 | 0.00 | 0.00 | 85 | 1023.2 |
| 20260902052533 | 55 | 264 | 2.0 | 4.0 | 0.00 | 0.00 | 0.00 | 88 | 1023.4 |